Tracking 26218 objects as of 26-Sep-2022
HD Live streaming from Space Station
objects crossing your sky now

STARLINK-3354

Track STARLINK-3354 now!
10-day predictions
STARLINK-3354 is classified as:


NORAD ID: 51146
Int'l Code: 2022-005AU
Perigee: 545.6 km
Apogee: 548.2 km
Inclination: 53.2 °
Period: 95.4 minutes
Semi major axis: 6917 km
RCS: Unknown
Launch date: January 19, 2022
Source: United States (US)
Launch site: AIR FORCE EASTERN TEST RANGE (AFETR)
aabbcc
Your satellite tracking list
Your tracking list is empty




NASA's NSSDC Master Catalog

Two Line Element Set (TLE):
1 51146U 22005AU  22268.23690578  .00001020  00000-0  82159-4 0  9998
2 51146  53.2191 202.0080 0001877  47.3783 312.7367 15.08840867 38295
Source of the keplerian elements: AFSPC